Simultaneous Nadir Overpasses (SNOs) Predictions

Prediction of SNOs between FY3D and AQUA Satellite Orbit:

Table of predicted SNOs for the next 14.0 days since TLE Epoch: 8/10/2024
Index Date (FY3D) Time (FY3D) Lat,Lon (FY3D) SZA (FY3D ) Date (AQUA) Time (AQUA) Lat,Lon (AQUA) SZA (AQUA ) Distance(km) Time Diff (sec)
1 08/10/2024 17:50:43 79.63,-107.12 65.03 08/10/2024 17:51:47 79.62,-107.02 65.00 2.11 64
2 08/10/2024 18:41:20 -79.40, 62.23 115.31 08/10/2024 18:41:02 -79.39, 62.31 115.32 1.75 18
3 08/13/2024 05:54:13 -79.52,-107.00 114.39 08/13/2024 05:54:51 -79.52,-107.01 114.40 0.33 38
4 08/13/2024 06:44:54 79.36, 61.73 65.38 08/13/2024 06:44:08 79.35, 61.88 65.37 3.08 46
5 08/15/2024 17:57:47 79.49,-107.59 66.34 08/15/2024 17:57:55 79.49,-107.51 66.33 1.77 8
6 08/15/2024 18:48:22 -79.19, 62.26 114.10 08/15/2024 18:47:08 -79.18, 62.29 114.09 1.30 74
7 08/18/2024 05:10:39 79.61, 83.25 67.28 08/18/2024 05:11:39 79.60, 83.31 67.26 1.36 60
8 08/18/2024 06:01:16 -79.37,-107.36 113.06 08/18/2024 06:00:54 -79.37,-107.35 113.06 0.21 22
9 08/20/2024 17:14:09 -79.52, 83.17 112.04 08/20/2024 17:14:37 -79.52, 83.18 112.05 0.30 28
10 08/20/2024 18:04:46 79.23,-107.09 67.56 08/20/2024 18:03:51 79.24,-107.21 67.58 2.76 55
11 08/23/2024 04:28:32 -81.13,-117.67 106.77 08/23/2024 04:29:45 -81.66,-117.21 106.54 59.29 73



Historial Predications of SNOs between FY3D and AQUA
